Regional Weather Roundup
Issued by NWS

Home | Current Version | Previous Version | Text Only | Print | Product List | Glossary On
Versions: 1 2 3 4 5 6 7 8 9 10 11 12 13 14 15 16 17 18 19 20 21 22 23 24 25 26 27 28 29 30 31 32 33 34 35 36 37 38 39 40 41 42 43 44 45 46 47 48 49 50
000
ASUS44 KLIX 260913
RWRLA
LOUISIANA WEATHER ROUNDUP
NATIONAL WEATHER SERVICE NEW ORLEANS LA
400 AM CDT TUE SEP 26 2017

NOTE: "FAIR" INDICATES FEW OR NO CLOUDS BELOW 12,000 FEET WITH NO
      SIGNIFICANT WEATHER AND/OR OBSTRUCTIONS TO VISIBILITY.
      SKY/WX - SKY CONDITION AND SIGNIFICANT WEATHER.
      TMP - AIR TEMPERATURE.    DP   - DEWPOINT TEMPERATURE.
      RH  - RELATIVE HUMIDITY.  PRES - PRESSURE.
      HX  - HEAT INDEX.         WCI  - WIND CHILL INDEX.

*  THESE STATIONS ARE NOT NWS OR FAA STATIONS AND ARE NOT UNDER
   NWS QUALITY CONTROL.

LAZ040-048-061>063-065-066-069-261000-
SOUTHEAST LOUISIANA

CITY           SKY/WX    TMP DP  RH WIND       PRES   REMARKS
N.O. INTL ARPT MOCLDY    77  75  93 E5        29.88S
N.O. LAKEFRONT PTCLDY    79  77  94 E8        29.88F
N.O. DOWNTOWN* FAIR      78  75  90 CALM      29.89S
RESERVE*       FAIR      76  74  92 CALM      29.89S FOG
SLIDELL        CLEAR     71  69  93 N3        29.88F
BATON ROUGE    CLEAR     70  69  97 NE5       29.89F
BOOTHVILLE     CLEAR     78  75  90 CALM      29.88S
BELLE CHASSE   NOT AVBL
BOGALUSA*      FAIR      69  66  90 CALM      29.92S
GALLIANO*      FOG       72  69  92 CALM      29.88S VSB<1/4
NEW ROADS*     FAIR      70  68  95 CALM      29.90S
GONZALES*      FAIR      72  71  99 CALM      29.88S
HAMMOND*       CLEAR     70  68  94 CALM      29.90S
HOUMA*         NOT AVBL
PORT FOURCHON* SUNNY     81  72  74 CALM      29.88S

$$

LAZ041-044-053-054-261000-
SOUTHWEST LOUISIANA

CITY           SKY/WX    TMP DP  RH WIND       PRES   REMARKS
LAKE CHARLES   CLEAR     74  72  93 CALM      29.88S
LAFAYETTE      CLEAR     73  71  93 CALM      29.89S
PATTERSON      NOT AVBL
SALT POINT       N/A     74  73  97 CALM      29.86S
NEW IBERIA     CLEAR     72  69  90 CALM      29.89S
CHENAULT AIRPK   N/A     71  70  96 CALM      29.89R

$$

LAZ027-028-261000-
CENTRAL LOUISIANA

CITY           SKY/WX    TMP DP  RH WIND       PRES   REMARKS
FORT POLK      CLEAR     70  68  92 CALM      29.89S
ALEXANDRIA INT CLEAR     69  67  93 CALM      29.88S
ALEXANDRIA     CLEAR     66  66 100 CALM      29.90S FOG

$$

LAZ001-002-261000-
NORTHWEST LOUISIANA

CITY           SKY/WX    TMP DP  RH WIND       PRES   REMARKS
SHREVEPORT     CLEAR     69  68  96 CALM      29.90S
BARKSDALE AFB  CLEAR     68  68 100 CALM      29.90S
DTN SHREVEPORT CLEAR     70  67  90 CALM      29.90S

$$

LAZ014-016-261000-
NORTHEAST LOUISIANA

CITY           SKY/WX    TMP DP  RH WIND       PRES   REMARKS
MONROE         CLEAR     68  66  93 CALM      29.92S
TALLULAH       CLEAR     68  68 100 CALM      29.92R

$$




USA.gov is the U.S. government's official web portal to all federal, state and local government web resources and services.